Regional Weather Roundup
Issued by NWS Kansas City/Pleasant Hill, MO

Home | Current Version | Previous Version | Text Only | Print | Product List | Glossary On
Versions: 1 2 3 4 5 6 7 8 9 10 11 12 13 14 15 16 17 18 19 20 21 22 23 24 25 26 27 28 29 30 31 32 33 34 35 36 37 38 39 40 41 42 43 44 45 46 47 48 49 50
980
ASUS43 KEAX 230210
RWREAX

WEATHER ROUNDUP FOR EASTERN KANSAS AND NORTHWEST MISSOURI
NATIONAL WEATHER SERVICE KANSAS CITY/PLEASANT HILL MO
900 PM CDT FRI JUL 22 2016

KSZ040-057-103>105-MOZ028-029-037-043-230300-
...KANSAS CITY METROPOLITAN AREA...

CITY           SKY/WX    TMP DP  RH WIND       PRES   REMARKS
K.C. INTL      MOCLDY    88  77  69 SE12      29.94F HX 100
K.C. DOWNTOWN  CLEAR     92  75  57 SE10G17   29.93F HX 103
LEES SUMMIT    CLEAR     88  76  67 SE9       29.97F HX  99
OLATHE - IXD   CLEAR     87  74  64 SE12      29.95F HX  95
OLATHE - OJC   CLEAR     86  76  71 SE9       29.96F HX  96
LAWRENCE       CLOUDY    84  77  79 SE7       29.92S HX  94

$$

MOZ001>008-011>017-020>025-030>033-038>040-044>046-053-054-230300-
...NORTHERN AND CENTRAL MISSOURI...

CITY           SKY/WX    TMP DP  RH WIND       PRES   REMARKS
ST. JOSEPH     PTCLDY    88  77  69 SE12      29.90F HX 100
MOSBY          CLEAR     86  77  74 SE5       29.94F HX  97
WHITEMAN AFB   PTCLDY    84  79  83 S6        29.97S HX  96
CLINTON        CLEAR     84  79  84 CALM      29.98S HX  96
SEDALIA        CLEAR     84  77  79 S3        30.01S HX  94
WARSAW         NOT AVBL
CHILLICOTHE      N/A     85  78  80 CALM      29.97S HX  96
KIRKSVILLE     CLEAR     80  76  87 CALM      30.00F

$$

MOZ041-047>049-056>058-063>065-088>090-097-230300-
...EASTERN AND SOUTHERN MISSOURI...

CITY           SKY/WX    TMP DP  RH WIND       PRES   REMARKS
ST. LOUIS INTL CLOUDY    85  69  58 CALM      30.02S
SPIRIT OF STL  CLOUDY    79  76  90 CALM      30.00S
COLUMBIA       CLEAR     83  78  85 SE6       30.01S HX  93
JEFFERSON CITY CLEAR     82  78  88 SE5       29.99R HX  91
ROLLA          CLEAR     80  77  90 E5        30.03R
OSAGE BEACH    CLEAR     83  79  88 E3        30.02R HX  94
SPRINGFIELD    CLEAR     85  72  65 S5        30.02S HX  91
BRANSON        PTCLDY    84  77  79 S5        30.05R HX  94
JOPLIN         CLEAR     87  73  62 SE7       29.99S HX  94
WEST PLAINS    CLOUDY    87  74  64 CALM      30.06S HX  95

$$

IAZ060-094-KSZ022-034>040-054-083-096-NEZ052-066-093-230300-
...KANSAS...SOUTHEAST NEBRASKA AND IOWA...

CITY           SKY/WX    TMP DP  RH WIND       PRES   REMARKS
TOPEKA         PTCLDY    89  72  56 SE10      29.90S HX  96
MANHATTAN      CLOUDY    88  73  61 W3        29.88R HX  95
EMPORIA        CLOUDY    87  74  64 SE12      29.93S HX  95
CHANUTE        CLEAR     86  74  67 SE6       29.95S HX  94
WICHITA        PTCLDY    92  69  47 SE13      29.92R HX  97
OMAHA          MOCLDY    89  81  77 E12       29.89S HX 108
LINCOLN        PTCLDY    86  70  58 CALM      29.89F HX  90
FALLS CITY     PTCLDY    85  77  77 SE7       29.89S HX  95
LAMONI         CLOUDY    82  77  84 SE8       29.96F HX  90
DES MOINES     PTCLDY    87  78  74 SE8       29.93F HX 100

$$





USA.gov is the U.S. government's official web portal to all federal, state and local government web resources and services.